Kapolei, HI

1:36 PM HST on February 25, 2017 (GMT -1000)
Kalaeloa (John Rodgers Field)

Weather History for PHJR - December, 2012

Change the Weather History Date:

Wednesday, December 5, 2012

  Actual Average (PHNL) Record (PHNL)
Temperature  
Mean Temperature 70 °F -  
Max Temperature 75 °F 82 °F 88 °F (1983)
Min Temperature 66 °F 67 °F 61 °F (1956)
Cooling Degree Days 6    
Growing Degree Days 20 (Base 50)    
Moisture  
Dew Point 70 °F    
Average Humidity 97    
Maximum Humidity 100    
Minimum Humidity 84    
Precipitation  
Precipitation 0.15 in - - ()
Sea Level Pressure  
Sea Level Pressure 30.07 in    
Wind  
Wind Speed 2 mph (ESE)    
Max Wind Speed 9 mph    
Max Gust Speed -    
Visibility 8 miles    
Events Rain    
Averages and records for this station are not official NWS values.
T = Trace of Precipitation, MM = Missing Value Source: NWS Daily Summary

Daily Weather History Graph

Daily Weather History Graph

Search for Another Location

Airport or City:

Trip Planner

Search our weather history database for the weather conditions in past years. The results will help you decide how hot, cold, wet, or windy it might be!

Date:

Astronomy

Dec. 05, 2012 Rise Set
Actual Time 6:56 AM HST 5:50 PM HST
Civil Twilight 6:32 AM HST 6:14 PM HST
Nautical Twilight 6:04 AM HST 6:41 PM HST
Astronomical Twilight 5:37 AM HST 7:08 PM HST
Moon No Moon Rise 12:00 PM HST (12/5)
Length of Visible Light 11h 41m
Length of Day
10h 53m
Waning Gibbous, 58% of the Moon is Illuminated
Dec 5
Waning Gibbous
Dec 6
Last Quarter
Dec 12
New
Dec 19
First Quarter
Dec 28
Full

Hourly Weather History & Observations

Time (HST) Temp. Dew Point Humidity Pressure Visibility Wind Dir Wind Speed Gust Speed Precip Events Conditions
12:07 AM 69.8 °F 69.8 °F 100% 30.08 in 2.0 mi Calm Calm - 0.10 in Rain Heavy Rain
12:24 AM 69.8 °F 69.8 °F 100% 30.08 in 7.0 mi Calm Calm - 0.15 in Rain Light Rain
12:53 AM 70.0 °F 70.0 °F 100% 30.09 in 10.0 mi NNW 3.5 mph - 0.15 in   Scattered Clouds
1:53 AM 70.0 °F 70.0 °F 100% 30.08 in 7.0 mi Calm Calm - N/A   Scattered Clouds
2:20 AM 69.8 °F 69.8 °F 100% 30.05 in 9.0 mi Calm Calm - N/A   Overcast
2:53 AM 69.1 °F 69.1 °F 100% 30.07 in 5.0 mi ENE 3.5 mph - N/A   Overcast
4:53 AM 68.0 °F - N/A% 30.06 in 8.0 mi Calm Calm - N/A   Clear
5:53 AM 68.0 °F 68.0 °F 100% 30.09 in 4.0 mi Calm Calm - N/A   Partly Cloudy
6:53 AM 68.0 °F - N/A% 30.09 in 8.0 mi Calm Calm - N/A   Clear
7:14 AM 68.0 °F - N/A% 30.08 in 7.0 mi Calm Calm - N/A   Mostly Cloudy
7:53 AM 69.1 °F 69.1 °F 100% 30.11 in 7.0 mi Calm Calm - N/A   Mostly Cloudy
8:34 AM 69.8 °F 69.8 °F 100% 30.09 in 8.0 mi ENE 3.5 mph - N/A   Mostly Cloudy
8:53 AM 70.0 °F 70.0 °F 100% 30.12 in 8.0 mi Calm Calm - N/A   Partly Cloudy
9:53 AM 73.0 °F 72.0 °F 96% 30.14 in 10.0 mi Calm Calm - N/A   Partly Cloudy
10:53 AM 75.0 °F 70.0 °F 84% 30.12 in 10.0 mi East 3.5 mph - N/A   Partly Cloudy
11:53 AM 75.0 °F 71.1 °F 87% 30.08 in 9.0 mi SSE 8.1 mph - N/A   Clear
12:13 PM 73.4 °F 71.6 °F 94% 30.06 in 10.0 mi SSE 5.8 mph - N/A   Scattered Clouds
12:53 PM 75.0 °F 72.0 °F 90% 30.05 in 9.0 mi South 6.9 mph - N/A   Clear
1:53 PM 73.9 °F 71.1 °F 91% 30.04 in 10.0 mi SSE 9.2 mph - 0.00 in   Clear
2:53 PM 73.9 °F 71.1 °F 91% 30.03 in 9.0 mi SSE 9.2 mph - N/A   Clear
3:53 PM 73.0 °F 72.0 °F 96% 30.04 in 9.0 mi South 6.9 mph - N/A   Clear
4:53 PM 73.0 °F 71.1 °F 93% 30.05 in 10.0 mi SE 3.5 mph - N/A   Clear
5:53 PM 71.1 °F 71.1 °F 100% 30.06 in 9.0 mi Calm Calm - N/A   Clear
6:53 PM 69.1 °F 69.1 °F 100% 30.04 in 10.0 mi Calm Calm - N/A   Clear
7:53 PM 69.1 °F 69.1 °F 100% 30.06 in 10.0 mi Calm Calm - N/A   Clear
8:53 PM 68.0 °F 68.0 °F 100% 30.06 in 9.0 mi ENE 3.5 mph - N/A   Clear
9:53 PM 66.9 °F 66.9 °F 100% 30.06 in 9.0 mi Calm Calm - N/A   Clear
10:53 PM 66.9 °F 66.9 °F 100% 30.06 in 10.0 mi Calm Calm - N/A   Clear
11:53 PM 66.9 °F 66.9 °F 100% 30.05 in 10.0 mi Calm Calm - N/A   Clear